Location: ????????
(54.9045°N, 39.1041°E)
Time: 11:29:04
(UTC+00:00)

Sich 1 - Pass Details

Date: 14 April 2024
Orbit: 584 x 612 km, 82.5° (Epoch: 21 May)

Event Time Altitude Azimuth Distance (km) Brightness Sun altitude
Rises 00:15:20 0° 347° (NNW) 2,827 6.9 -16.3°
Reaches altitude 10° 00:17:32 10° 346° (NNW) 1,922 6.0 -16.1°
Maximum altitude 00:21:46 78° 262° (W) 606 2.8 -15.6°
Enters shadow 00:25:28 13° 175° (S) 1,703 5.0 -15.2°
